User: anonymous   Login
Location: Unspecified
(0.0000°N, 0.0000°E)
Time: 05:42:48
(UTC+00:00)
Language:

STARLINK-3673 - Orbit

View from above orbital plane
View from above orbital plane
View from above satellite
View from above satellite

Ground track
Ground track

The orbit is defined by the following mean orbital elements,

1 52093U          26145.18152426 +.00000000 +00000-0 -12925-5 0 00004
2 52093  53.2151 105.7458 0001523  80.7452 279.3713 15.08834632    07
Epoch (UTC): 25 May 2026 04:21:23
Eccentricity: 0.0001523
inclination: 53.2151°
perigee height: 539 km
apogee height: 541 km
right ascension of ascending node: 105.7458°
argument of perigee: 80.7452°
revolutions per day: 15.08834632
mean anomaly at epoch: 279.3713°

The dashed part of the orbit path shows where the satellite is in the earth's shadow,  

DLR